Beaufort, NC

4:50 PM EDT on September 26, 2017 (GMT -0400)
Smith

Weather History for KMRH - November, 2013

Change the Weather History Date:

Friday, November 1, 2013

  Actual Average Record
Temperature  
Mean Temperature 72 °F -  
Max Temperature 75 °F 72 °F 81 °F (1949)
Min Temperature 68 °F 52 °F 36 °F (1993)
Cooling Degree Days 6    
Growing Degree Days 22 (Base 50)    
Moisture  
Dew Point 69 °F    
Average Humidity 89    
Maximum Humidity 97    
Minimum Humidity 81    
Precipitation  
Precipitation 0.07 in - - ()
Sea Level Pressure  
Sea Level Pressure 29.87 in    
Wind  
Wind Speed 13 mph (SSW)    
Max Wind Speed 18 mph    
Max Gust Speed 30 mph    
Visibility 7 miles    
Events Rain    
Averages and records for this station are not official NWS values.
T = Trace of Precipitation, MM = Missing Value Source: NWS Daily Summary

Daily Weather History Graph

Daily Weather History Graph

Search for Another Location

Airport or City:

Trip Planner

Search our weather history database for the weather conditions in past years. The results will help you decide how hot, cold, wet, or windy it might be!

Date:

Astronomy

Nov. 01, 2013 Rise Set
Actual Time 7:27 AM EDT 6:12 PM EDT
Civil Twilight 7:01 AM EDT 6:38 PM EDT
Nautical Twilight 6:31 AM EDT 7:08 PM EDT
Astronomical Twilight 6:02 AM EDT 7:37 PM EDT
Moon 5:21 AM EDT (11/1) 5:00 PM EDT (11/1)
Length of Visible Light 11h 37m
Length of Day
10h 45m
Waning Crescent, 4% of the Moon is Illuminated
Nov 1
Waning Crescent
Nov 3
New
Nov 10
First Quarter
Nov 17
Full
Nov 25
Last Quarter

Hourly Weather History & Observations

Time (EDT) Temp. Dew Point Humidity Pressure Visibility Wind Dir Wind Speed Gust Speed Precip Events Conditions
12:58 AM 72.0 °F 66.9 °F 84% 30.00 in 10.0 mi South 9.2 mph - N/A   Scattered Clouds
1:58 AM 72.0 °F 66.9 °F 84% 29.98 in 10.0 mi South 8.1 mph - N/A   Clear
2:58 AM 73.0 °F 66.9 °F 81% 29.95 in 10.0 mi South 11.5 mph - N/A   Scattered Clouds
3:58 AM 73.0 °F 66.9 °F 81% 29.93 in 10.0 mi South 12.7 mph - N/A   Overcast
4:42 AM 69.8 °F 66.2 °F 88% 29.93 in 4.0 mi WSW 13.8 mph 29.9 mph 0.01 in Rain Rain
4:45 AM 69.8 °F 66.2 °F 88% 29.93 in 4.0 mi WSW 16.1 mph 29.9 mph 0.01 in Rain Light Rain
4:54 AM 68.0 °F 66.2 °F 94% 29.93 in 4.0 mi WSW 17.3 mph 26.5 mph 0.01 in Rain Light Rain
4:58 AM 68.0 °F 66.9 °F 96% 29.93 in 4.0 mi WSW 15.0 mph 26.5 mph 0.01 in Rain Light Rain
5:16 AM 68.0 °F 66.2 °F 94% 29.92 in 2.5 mi WSW 18.4 mph 23.0 mph 0.04 in Rain Heavy Rain
5:25 AM 68.0 °F 66.2 °F 94% 29.92 in 3.0 mi SW 15.0 mph - 0.05 in Rain Rain
5:58 AM 69.1 °F 68.0 °F 96% 29.89 in 9.0 mi South 11.5 mph - 0.06 in   Overcast
6:58 AM 70.0 °F 69.1 °F 97% 29.89 in 9.0 mi South 15.0 mph - N/A   Overcast
7:27 AM 71.6 °F 69.8 °F 94% 29.89 in 8.0 mi SSW 15.0 mph 25.3 mph 0.00 in   Overcast
7:58 AM 71.1 °F 69.1 °F 93% 29.89 in 7.0 mi SSW 17.3 mph - 0.00 in   Overcast
8:58 AM 72.0 °F 69.1 °F 91% 29.91 in 7.0 mi SSW 16.1 mph - N/A   Overcast
9:58 AM 73.9 °F 69.1 °F 85% 29.91 in 7.0 mi SW 15.0 mph 21.9 mph N/A   Mostly Cloudy
10:58 AM 73.9 °F 70.0 °F 87% 29.90 in 6.0 mi SW 12.7 mph - N/A   Overcast
11:58 AM 75.0 °F 71.1 °F 87% 29.88 in 6.0 mi SSW 11.5 mph - N/A   Mostly Cloudy
12:58 PM 75.0 °F 71.1 °F 87% 29.86 in 6.0 mi SW 15.0 mph - N/A   Partly Cloudy
1:58 PM 73.9 °F 71.1 °F 91% 29.82 in 6.0 mi SSW 12.7 mph - N/A   Clear
2:58 PM 75.0 °F 70.0 °F 84% 29.81 in 7.0 mi SW 15.0 mph - N/A   Clear
3:58 PM 75.0 °F 70.0 °F 84% 29.79 in 7.0 mi SW 15.0 mph - N/A   Clear
4:58 PM 73.0 °F 69.1 °F 87% 29.78 in 6.0 mi SSW 15.0 mph - N/A   Clear
5:58 PM 72.0 °F 69.1 °F 91% 29.78 in 6.0 mi SSW 12.7 mph - N/A   Clear
6:58 PM 73.0 °F 69.1 °F 87% 29.80 in 8.0 mi SSW 15.0 mph - N/A   Partly Cloudy
7:58 PM 73.0 °F 70.0 °F 90% 29.81 in 8.0 mi SSW 12.7 mph - N/A   Clear
8:58 PM 73.0 °F 71.1 °F 93% 29.79 in 7.0 mi South 12.7 mph - 0.00 in Rain Light Rain
9:58 PM 73.9 °F 71.1 °F 91% 29.78 in 6.0 mi SSW 12.7 mph - 0.00 in   Overcast
10:58 PM 73.0 °F 71.1 °F 93% 29.78 in 6.0 mi SSW 12.7 mph - 0.00 in   Mostly Cloudy
11:58 PM 73.9 °F 71.1 °F 91% 29.76 in 7.0 mi SSW 15.0 mph - N/A   Overcast